Regional Weather Roundup
Issued by NWS Wakefield, VA

Home | Current Version | Previous Version | Graphics & Text | Print | Product List | Glossary On
Versions: 1 2 3 4 5 6 7 8 9 10 11 12 13 14 15 16 17 18 19 20 21 22 23 24 25 26 27 28 29 30 31 32 33 34 35 36 37 38 39 40 41 42 43 44 45 46 47 48 49 50
000
ASUS41 KAKQ 020515
RWRAKQ

REGIONAL WEATHER ROUNDUP
NATIONAL WEATHER SERVICE WAKEFIELD VA
100 AM EDT SUN AUG 02 2015

Note: "fair" indicates few or no clouds below 12,000 feet with no
significant weather and/or obstructions to visibility. * = Denotes
station may not report precipitation (e.g., rain,snow,etc.),
thunder or fog.

VAZ042-051-052>054-056-020600-
NORTHERN VIRGINIA

CITY           SKY/WX    TMP DP  RH WIND       PRES   REMARKS
WASH NATIONAL  MOCLDY    80  59  48 N5        29.91R
DULLES         CLOUDY    66  60  81 CALM      29.93R
FORT BELVOIR   PTCLDY    68  65  92 CALM      29.91R
QUANTICO       NOT AVBL
FREDERICKSBRG* PTCLDY    74  66  75 CALM      29.91R
STAFFORD*      PTCLDY    68  63  84 CALM      29.96R
WARRENTON      PTCLDY    64  64  99 CALM      29.92S
CULPEPER*      MOCLDY    64  64  97 CALM      29.94R
MANASSAS*      PTCLDY    68  66  94 CALM      29.92S
LEESBURG*      PTCLDY    72  61  68 W5        29.93S
WINCHESTER     CLEAR     66  55  68 CALM      29.95S
FRONT ROYAL*   FAIR      64  57  77 S7        29.94S
LURAY*         FAIR      66  59  77 SE3       29.97R
$$

VAZ048-049-060>072-079>083-020600-
CENTRAL AND SOUTH CENTRAL VIRGINIA

CITY           SKY/WX    TMP DP  RH WIND       PRES   REMARKS
RICHMOND       PTCLDY    78  66  66 CALM      29.90R
CHESTERFIELD*  FAIR      72  55  56 NW3       29.92R
PETERSBURG*    CLEAR     70  70 100 CALM      29.90S
HANOVER        MOCLDY    69  68  96 CALM      29.92R
TAPPAHANNOCK*  CLEAR     71  67  89 CALM      29.91R
QUINTON*       FAIR      71  68  92 CALM      29.88S
CHARLOTTSVILLE CLEAR     67  60  78 CALM      29.94R
GORDONSVILLE*  FAIR      64  63  94 CALM      29.93S
ORANGE*        PTCLDY    66  63  88 CALM      29.95S
LOUISA*        PTCLDY    66  63  88 CALM      29.92S
BUMPASS*       FAIR      69  67  93 N5        29.92R
FARMVILLE*     MOCLDY    67  65  93 CALM      29.93S
CREWE*         MOCLDY   N/A N/A N/A NW5       29.93R
FORT PICKETT*  FAIR      71  63  76 NW9       29.92S
CHASE CITY*    FAIR      71  67  85 CALM      29.94S
CLARKSVILLE*   FAIR      70  64  83 CALM      29.93S
SOUTH HILL*    CLEAR     70  64  83 CALM      29.98S
LAWRENCEVILLE* FAIR      66  64  94 CALM      29.91R
EMPORIA*       CLEAR     64  64 100 CALM      29.91F
$$

VAZ088>098-020600-
SOUTHEAST VIRGINIA

CITY           SKY/WX    TMP DP  RH WIND       PRES   REMARKS
NORFOLK        CLEAR     77  71  82 S6        29.88S
VIRGINIA BEACH CLEAR     78  71  79 SW5       29.87F
NORFOLK NAVAL  PTCLDY    78  72  81 SW6       29.89S
WEST POINT*    CLEAR     73  69  87 NW3       29.89S
SALUDA*        FAIR      78  72  83 SW5       29.87S
NEWPORT NEWS   CLEAR     78  73  84 SW9       29.88S
LANGLEY AFB    CLEAR     79  73  82 SW7       29.88S
FORT EUSTIS    CLEAR     79  78  97 SW6       29.86S
WILLIAMSBURG*  CLEAR     77  70  78 CALM      29.89S
HR EXEC AP*    FAIR      70  66  88 SW5       29.91S
FRANKLIN*      CLEAR     70  68  93 CALM      29.89F
WAKEFIELD      CLEAR     72  68  87 CALM      29.89S
$$

VAZ020-022-025-037-045-020600-
WEST CENTRAL AND SOUTHWEST VIRGINIA

CITY           SKY/WX    TMP DP  RH WIND       PRES   REMARKS
STAUNTON*      CLEAR     63  57  80 CALM      30.00S
WAYNESBORO*    FAIR      61  57  84 SW3       30.00S
HOT SPRINGS VA CLEAR     63  53  70 NW13      30.09R
LYNCHBURG      CLEAR     62  58  86 NW5       29.98S
DANVILLE       CLEAR     65  62  90 CALM      29.96R
SOUTH BOSTON*  FAIR      66  65  95 CALM      29.95R
MARTINSVILLE   CLEAR     63  63 100 CALM      30.01S
ROANOKE        CLEAR     67  56  67 NW3       30.01S
BLACKSBURG     CLEAR     60  58  92 CALM      30.08R
DUBLIN*          N/A     63  59  85 CALM      30.07R
MARION*        CLEAR     61  59  92 CALM      30.10R
HILLSVILLE*    CLEAR     67  57  71 NW5       30.06S
RICHLANDS*     FAIR      64  60  85 CALM      30.08F
WISE*          CLEAR     66  55  68 CALM      30.09S
ABINGDON*      CLEAR     65  60  83 CALM      30.06S
$$

MDZ021>025-VAZ099-100-020600-
SOUTHERN MARYLAND AND THE DELMARVA PENINSULA

CITY           SKY/WX    TMP DP  RH WIND       PRES   REMARKS
PATUXENT RIVER PTCLDY    78  73  84 NW7       29.88R
BAY BRIDGE APT   N/A     77  63  61 N5        29.90R
LEONARDTOWN    PTCLDY    73  66  78 CALM      29.91S
DOVER          NOT AVBL
GEORGETOWN     PTCLDY    71  68  90 CALM      29.90S
EASTON         PTCLDY    73  73 100 CALM      29.93R
CAMBRIDGE      PTCLDY    73  68  83 CALM      29.89R
SALISBURY      PTCLDY    74  66  76 NE10      29.90R
OCEAN CITY     MOCLDY    76  66  71 NE3       29.89F
WALLOPS ISLAND PTCLDY    78  77  96 S8        29.88S
ACCOMACK*      CLOUDY   N/A N/A N/A S6        29.88S
$$

NCZ012>017-030>032-020600-
NORTH CENTRAL AND EASTERN NORTH CAROLINA

CITY           SKY/WX    TMP DP  RH WIND       PRES   REMARKS
ROANOKE RAPIDS FAIR      66  64  94 SW3       29.90S
RALEIGH        PTCLDY    70  64  81 CALM      29.94R
ELIZABETH CITY CLEAR     76  75  97 SW8       29.89S
AHOSKIE*       CLEAR     66  64  92 CALM      29.90S
EDENTON*         N/A     78  75  91 SW7       29.90S
CURRITUCK*     CLEAR     76  73  88 CALM      29.90S
KILL DEVIL HLS CLEAR     79  74  85 SW6       29.89S
MANTEO         CLEAR     78  76  93 W10       29.90S
CAPE HATTERAS  CLEAR     79  75  87 W7        29.91S
TARBORO*         N/A     69  66  92 CALM      29.91S
GOLDSBORO      CLEAR     77  75  93 S5        29.90S
WASHINGTON     CLEAR     76  74  92 SW6       29.91S
GREENVILLE     CLEAR     77  73  88 SW5       29.93S
NEW BERN       CLEAR     76  73  91 SW6       29.93S
WILMINGTON     CLEAR     77  73  87 SW3       29.92S
$$

VAZ048-020600-
ELSEWHERE

CITY           SKY/WX    TMP DP  RH WIND       PRES   REMARKS
HARRISBURG PA  PTCLDY    73  57  57 NW8       29.89S
BALTIMORE      MOCLDY    70  62  76 CALM      29.91R
ANNAPOLIS      CLEAR     75  67  76 NW3       29.89R
ANDREWS AFB    PTCLDY    69  62  78 CALM      29.91
PHILADELPHIA   PTCLDY    77  62  59 SW5       29.89R
HENDERSON NC   CLEAR     75  58  55 NW5       29.94S
GREENSBORO     PTCLDY    74  57  55 CALM      29.96R
ROCKY MOUNT    CLEAR     69  63  81 S5        29.92R
$$

VAZ100-020600-
MARINE

STATION/POSITION TIME  TEMP    WIND        PRES    WAVE   SWELL
                       AIR SEA DIR/SP/G            HT/PER HT/PER
                 (UTC) (F)     (DEG/KT/KT) (MB)    (FT/S) (FT/S)
BRANDYWINE LGT   0400   71 72  210/ 16/ 18 1012.2R
CAPE MAY NJ      0400   71 75  200/  6/  9 1011.7R
LEWES DE         0400   70 77  180/  6/  8 1012.0F
15NM E FENWICK I 0450   79 79  300/  8/ 10 1012.3R   3/ 8   3/ 8
OCEAN-CITY-INLET 0400   79 73   60/  4/ 10 1011.7R
WACHAPREAGUE VA  0400   81 84  210/  8/ 12 1011.8F
GOOSES REEF MD   0500   83 82  350/ 12/ 14 1013.4R
COVE POINT MD    0400   82      20/  2/  4 1012.3R
SOLOMONS ISLAND  0400      84                N/A
BISHOPS HEAD MD  0400   83 84  240/ 11/ 12 1010.7R
PINEY POINT MD   0400           50/  3/  4   N/A
POTOMAC MD       0500   83 83  310/  4/  6 1010.7R   1/ 3
CAMBRIDGE MD     0400   80 85     CALM     1010.8R
LEWISETTA VA     0400   80 85  280/  2/  4 1011.3R
RAPPAHANNOCK LGT 0400          180/ 12/ 13 1011.9F
STINGRAY PT      0500   83 83  220/ 12/ 14 1011.5S   1/ 2
YORK RVR RNG VA  0400   82     210/ 14/ 16 1010.9F
YORKTOWN VA      0400   79 84  210/  8/ 11 1011.3S
JAMESTOWN VA     0500   79 86  260/  4/  4   N/A
DOMINION TERM VA 0400   80     210/ 10/ 13 1011.7S
KIPTOPEKE VA     0400      82  200/ 10/ 12   N/A
CHES BAY BRIDGE  0400   81 79  190/ 10/ 11 1011.3F
CAPE HENRY VA    0400   79     200/  7/ 10   N/A
CHESAPEAKE LGHT  0400   80     200/ 13/ 14 1012.4F
WILLOUBY STN VA  0400   82     210/ 13/ 16 1012.6F
CAPE HENRY BUOY  0428      81                N/A     2/11   2/11
1ST LANDING BUOY 0500      79              1011.4F   1/ 3
CAPE CHARLES BUO 0426      78                N/A     2/12   2/12
OFFSHORE WE BUOY 0411      81                N/A     3/ 8   2/ 8
64NM E OF VA BCH 0450   80 81  220/ 10/ 12 1011.9S   3/ 7   3/ 7
DUCK PIER NC     0400   81 76  200/  7/  8 1011.4F
44100 DUCK FRF   0424      81                N/A     2/12   2/12
44056 DUCK FRF   0411      79                N/A     2/13
OREGON INLET NC  0400   81 84  230/ 13/ 14 1012.4F
HATTERAS NC      0400   80 81  230/  8/ 11 1012.4F
DIAMOND SHLS NC  0450   82 85  240/ 14/ 16 1012.6F   4/ 7   2/ 7



USA.gov is the U.S. government's official web portal to all federal, state and local government web resources and services.